[[{"header":{"parameterUnit":"m.s-1","parameterCategory":2,"la1":30.2991,"la2":30.254,"lo1":-89.0895,"lo2":-89.0444,"dy":0.0017,"dx":0.0017,"nx":28,"ny":28,"refTime":"2025-06-20T03:00:00:Z","depth":"0","parameterNumber":2,"parameterNumberName":"U-component_of_CURRENTS"},"data":[0,0,0,0,0,0,0,0,0,0,0,0,0,0,0,0,0,0,0,0,0,0,0,0,0,0,0,0,0,0,0,0,0,0,0,0,0,0,0,0,0,0,0,0,0,0,0,0,0,0,0,0,0,0,0,0,0,0,0.3549,0.3551,0,0.3668,0.3669,0.367,0.371,0.371,0.371,0.371,0.3864,0.3868,0.3872,0,0,0,0,0,0,0,0,0,0,0,0,0,0.3245,0.3251,0.3549,0.3551,0.3553,0.3668,0.3669,0.3671,0.371,0.371,0.371,0.371,0.3862,0.3867,0.3872,0,0,0,0,0,0,0,0,0,0,0,0,0,0.3368,0.3253,0.3548,0.3589,0.3594,0.3668,0.3669,0.3671,0.371,0.371,0.371,0.371,0.3861,0.3867,0.3873,0.3915,0,0,0.3892,0.3895,0,0,0,0,0,0,0,0,0.3361,0.3379,0.3581,0.3587,0.3593,0.3678,0.3619,0.3756,0.371,0.3662,0.371,0.371,0.3808,0.3818,0.3835,0.3923,0.3929,0.3893,0.3897,0.3899,0.3901,0,0,0,0,0,0,0,0.3353,0.3373,0.3592,0.3584,0.359,0.3564,0.3582,0.3644,0.3732,0.3666,0.367,0.369,0.381,0.3828,0.3839,0.3932,0.3893,0.3898,0.3902,0.3905,0.4077,0.4078,0,0,0,0,0,0,0.3354,0.3367,0.3588,0.3596,0.3479,0.3571,0.359,0.3647,0.3731,0.3744,0.369,0.3692,0.3818,0.3831,0.3844,0.3901,0.3899,0.3905,0.3909,0.4077,0.4078,0.4078,0,0,0,0,0,0,0.3347,0.3374,0.3583,0.3484,0.3509,0.3577,0.364,0.365,0.3671,0.3749,0.3762,0.3702,0.3818,0.3836,0.3899,0.3907,0.3908,0.3914,0.4076,0.4077,0.4078,0.4014,0,0,0,0,0,0,0.3339,0.3372,0.3403,0.3486,0.3516,0.3647,0.3641,0.3652,0.3685,0.3688,0.3764,0.3778,0.3819,0.389,0.3906,0.3916,0.3919,0.4075,0.4076,0.4078,0.4015,0.4013,0.4011,0,0,0,0,0,0.3328,0.3393,0.3404,0.343,0.3561,0.3649,0.3662,0.3703,0.3686,0.3715,0.3746,0.3775,0.3911,0.3896,0.3914,0.3926,0.4074,0.4076,0.4077,0.4016,0.4013,0.4011,0,0,0,0,0,0,0.3273,0.3406,0.342,0.3519,0.358,0.3657,0.3687,0.3701,0.3746,0.3739,0.379,0.3808,0.3865,0.3909,0.3891,0.3982,0.3996,0.4002,0.3943,0.3941,0.3939,0.3912,0.3924,0,0,0,0,0,0.3275,0.3361,0.3457,0.3528,0.3561,0.3613,0.3646,0.3674,0.3728,0.3746,0.379,0.3838,0.3888,0.3923,0.3979,0.4034,0.405,0.4054,0.4052,0.405,0.4042,0.4107,0.411,0.4084,0.4084,0.4084,0,0,0.3267,0.3352,0.3396,0.3521,0.3564,0.361,0.3633,0.3692,0.3704,0.3758,0.3784,0.3836,0.3901,0.3956,0.3986,0.3993,0.4053,0.4052,0.4049,0.4042,0.4109,0.4111,0.4113,0.4086,0.4085,0.4085,0,0,0.3301,0.3373,0.345,0.3501,0.3584,0.3612,0.3627,0.3699,0.3708,0.3752,0.378,0.3825,0.3914,0.3949,0.398,0.4003,0.4039,0.4036,0.4007,0.407,0.4072,0.4075,0.4035,0.4034,0.4036,0.4036,0.4036,0,0.3273,0.339,0.3476,0.3545,0.3564,0.3607,0.3641,0.3667,0.3738,0.374,0.3756,0.3853,0.3901,0.3951,0.3957,0.3994,0.4016,0.4005,0.4065,0.4068,0.4072,0.4031,0.4031,0.4033,0.4034,0.4034,0.4034,0,0.3368,0.3429,0.3472,0.3564,0.3595,0.3637,0.3674,0.3687,0.3687,0.3712,0.3757,0.3823,0.388,0.3906,0.3939,0.399,0.3988,0.4051,0.4063,0.407,0.4026,0.4028,0.4029,0.403,0.4031,0.4032,0,0,0.3357,0.3508,0.351,0.3529,0.3596,0.3629,0.3632,0.3656,0.3652,0.3704,0.3714,0.3784,0.3819,0.3856,0.391,0.3961,0.3974,0.4017,0.4022,0.3958,0.4054,0.3779,0.3753,0.4072,0.4074,0.4075,0.399,0,0.3379,0.3495,0.355,0.3578,0.3619,0.3625,0.3625,0.3641,0.3655,0.368,0.3724,0.3768,0.3802,0.3836,0.3892,0.3975,0.3987,0.3986,0.4074,0.4073,0.3815,0.375,0.355,0.3436,0.3991,0.3991,0.3992,0,0.3435,0.35,0.3559,0.358,0.3592,0.36,0.3579,0.3591,0.3624,0.3637,0.3681,0.3732,0.3782,0.3833,0.3924,0.3935,0.3977,0.4026,0.4026,0.3795,0.3801,0.3535,0.3418,0.3319,0.3994,0.3994,0.3993,0,0.3397,0.3477,0.3512,0.3528,0.3581,0.3565,0.3563,0.358,0.3574,0.3617,0.3623,0.3705,0.373,0.3833,0.3871,0.3935,0.3954,0.4059,0.3826,0.3805,0.3657,0.3618,0.3437,0.4111,0.4112,0.4112,0.4112,0,0.3407,0.3419,0.3499,0.3521,0.3513,0.3545,0.3527,0.3536,0.3554,0.3546,0.3606,0.3612,0.3748,0.3762,0.3845,0.3765,0.3917,0.377,0.3764,0.3616,0.3577,0.3504,0.3504,0.4108,0.4109,0.411,0.411,0,0.338,0.3442,0.3474,0.3516,0.3515,0.3509,0.3496,0.3491,0.3501,0.3493,0.3499,0.354,0.3511,0.3554,0.3664,0.3657,0.3524,0.3607,0.3342,0.3302,0.2968,0.2972,0.2692,0.2648,0.3343,0.3335,0.3329,0,0.3391,0.342,0.3462,0.347,0.3489,0.348,0.347,0.3469,0.3454,0.3438,0.3428,0.3374,0.3302,0.3244,0.32,0.3149,0.3195,0.2953,0.3026,0.2845,0.2853,0.2823,0.2812,0.2805,0.2795,0.2787,0.278,0,0.3391,0.3408,0.3446,0.3457,0.3452,0.3424,0.3402,0.3368,0.3351,0.3313,0.3224,0.3157,0.2995,0.279,0.2649,0.2663,0.2745,0.2775,0.2725,0.2473,0.2303,0.2291,0.2911,0.2707,0.2714,0.272,0.2724,0.2727,0.3379,0.3394,0.3439,0.3415,0.3409,0.3334,0.3229,0.32,0.3111,0.293,0.3004,0.275,0.2515,0.225,0.2224,0.1978,0.2162,0.1975,0.2009,0.2005,0.189,0.2239,0.1944,0.1947,0.1949,0.1951,0.1953,0,0.3346,0.3365,0.3376,0.3328,0.3241,0.3256,0.3145,0.297,0.2776,0.2657,0.2504,0.21,0.1821,0.1646,0.1372,0.1276,0.1355,0.1259,0.127,0.1325,0.1745,0.1648,0.1107,0.1108,0.1108,0.1108,0.1108,0.1108,0.3342,0.3327,0.3304,0.3142,0.3083,0.2845,0.272,0.2506,0.2336,0.1943,0.1643,0.151,0.1297,0.0976,0.0759,0.0767,0.0814,0.0656,0.0805,0.1183,0.1258,0.133,0.1238,0.0621,0.062,0.0344,0.0341,0.0339]},{"header":{"parameterUnit":"m.s-1","parameterCategory":2,"la1":30.2991,"la2":30.254,"lo1":-89.0895,"lo2":-89.0444,"dy":0.0017,"dx":0.0017,"nx":28,"ny":28,"refTime":"2025-06-20T03:00:00:Z","depth":"0","parameterNumber":3,"parameterNumberName":"V-component_of_CURRENTS"},"data":[0,0,0,0,0,0,0,0,0,0,0,0,0,0,0,0,0,0,0,0,0,0,0,0,0,0,0,0,0,0,0,0,0,0,0,0,0,0,0,0,0,0,0,0,0,0,0,0,0,0,0,0,0,0,0,0,0,0,0.035,0.035,0,0.0358,0.0358,0.0359,0.037,0.037,0.037,0.037,0.0529,0.0534,0.0538,0,0,0,0,0,0,0,0,0,0,0,0,0,0.0357,0.0357,0.035,0.035,0.0349,0.0357,0.0358,0.0359,0.037,0.037,0.037,0.0369,0.0528,0.0533,0.0538,0,0,0,0,0,0,0,0,0,0,0,0,0,0.0363,0.0357,0.035,0.0352,0.0352,0.0357,0.0358,0.0359,0.037,0.037,0.037,0.0369,0.0526,0.0532,0.0539,0.0589,0,0,0.056,0.0563,0,0,0,0,0,0,0,0,0.0363,0.0364,0.0352,0.0352,0.0352,0.0358,0.0418,0.0441,0.0371,0.0369,0.037,0.0369,0.0483,0.0493,0.0501,0.0596,0.0603,0.056,0.0564,0.0567,0.0569,0,0,0,0,0,0,0,0.0362,0.0363,0.0358,0.0352,0.0352,0.0356,0.0357,0.0423,0.0435,0.0369,0.0369,0.0361,0.0485,0.0494,0.0505,0.0605,0.056,0.0566,0.057,0.0573,0.0893,0.0897,0,0,0,0,0,0,0.0351,0.0363,0.0358,0.0358,0.0351,0.0356,0.0357,0.0361,0.0431,0.0439,0.0362,0.0362,0.0483,0.0497,0.0511,0.0677,0.0567,0.0574,0.0577,0.0888,0.0894,0.0898,0,0,0,0,0,0,0.0351,0.0351,0.0358,0.0356,0.0356,0.0356,0.036,0.0361,0.037,0.0423,0.0434,0.0369,0.0483,0.0501,0.0598,0.0679,0.0577,0.0583,0.0883,0.089,0.0896,0.0944,0,0,0,0,0,0,0.0352,0.0351,0.0356,0.0355,0.0356,0.0377,0.036,0.0361,0.0364,0.0364,0.0433,0.0447,0.0484,0.0588,0.0605,0.0687,0.0588,0.0877,0.0886,0.0894,0.0937,0.0951,0.0964,0,0,0,0,0,0.0352,0.0361,0.0356,0.0355,0.036,0.0377,0.038,0.038,0.0364,0.0385,0.0439,0.0445,0.0654,0.0596,0.0615,0.0701,0.0873,0.0884,0.0893,0.0931,0.0948,0.0964,0,0,0,0,0,0,0.036,0.0363,0.0357,0.0365,0.0375,0.0378,0.0387,0.0381,0.0434,0.044,0.0483,0.0504,0.0625,0.066,0.0594,0.0824,0.0773,0.0787,0.0795,0.0813,0.0826,0.083,0.0594,0,0,0,0,0,0.0363,0.0377,0.0376,0.0383,0.0387,0.0386,0.039,0.0394,0.043,0.0449,0.0498,0.0579,0.0683,0.0738,0.0819,0.0931,0.0918,0.1009,0.1023,0.1033,0.1056,0.1102,0.1119,0.0931,0.0931,0.0931,0,0,0.0363,0.0368,0.0373,0.0387,0.0391,0.0428,0.0391,0.0405,0.046,0.0464,0.0561,0.0618,0.0722,0.0855,0.0915,0.0892,0.1074,0.1046,0.1054,0.1071,0.1114,0.1131,0.1147,0.0938,0.0937,0.0936,0,0,0.0378,0.038,0.0399,0.042,0.0432,0.045,0.0454,0.0471,0.0505,0.0594,0.0633,0.0738,0.0863,0.0967,0.1036,0.1179,0.1137,0.1208,0.1289,0.1333,0.1347,0.1359,0.1317,0.1326,0.1223,0.1223,0.1223,0,0.0372,0.0407,0.0407,0.0441,0.0469,0.0465,0.0509,0.0554,0.0607,0.0667,0.064,0.0871,0.0934,0.1138,0.1188,0.1211,0.1184,0.1206,0.1344,0.1357,0.1369,0.1323,0.1332,0.1226,0.1226,0.1226,0.1225,0,0.0413,0.0445,0.046,0.0515,0.0553,0.0586,0.0644,0.0701,0.0733,0.0786,0.0955,0.1041,0.1182,0.123,0.1252,0.1408,0.1339,0.1338,0.1283,0.1389,0.1335,0.1343,0.1232,0.123,0.1229,0.1228,0,0,0.0375,0.0469,0.0474,0.0528,0.0597,0.0637,0.0748,0.0858,0.0953,0.1026,0.1162,0.1334,0.1354,0.1436,0.1483,0.1529,0.1566,0.1465,0.1466,0.1388,0.1586,0.1504,0.1503,0.1566,0.1569,0.1572,0.1493,0,0.0401,0.049,0.0537,0.0644,0.0699,0.0765,0.0878,0.0987,0.1079,0.1212,0.1326,0.1462,0.1445,0.1508,0.1564,0.1578,0.1598,0.1583,0.1528,0.1526,0.1412,0.1516,0.1446,0.1369,0.15,0.1502,0.1502,0,0.0421,0.0489,0.0591,0.0738,0.0769,0.0843,0.1028,0.1128,0.1316,0.1388,0.1532,0.1594,0.1727,0.1669,0.1733,0.1709,0.1658,0.1638,0.1634,0.1555,0.1463,0.1301,0.1378,0.1409,0.1514,0.1513,0.1512,0,0.041,0.0529,0.0621,0.0666,0.0827,0.0905,0.0999,0.1182,0.1294,0.1488,0.1566,0.1726,0.1789,0.1793,0.1746,0.1733,0.1752,0.1733,0.1608,0.1596,0.1532,0.1511,0.1612,0.1765,0.1765,0.1765,0.1765,0,0.0432,0.0507,0.0622,0.068,0.0821,0.0918,0.109,0.1209,0.1387,0.1526,0.1641,0.1751,0.1816,0.1835,0.178,0.1708,0.1775,0.1641,0.1602,0.1542,0.1524,0.1544,0.1564,0.1762,0.1763,0.1763,0.1764,0,0.0434,0.0494,0.0612,0.0768,0.0819,0.0923,0.1115,0.1246,0.138,0.1556,0.1606,0.1767,0.1777,0.1787,0.1782,0.1733,0.1674,0.1628,0.151,0.1461,0.1386,0.1411,0.1441,0.149,0.1497,0.1495,0.1493,0,0.0466,0.0515,0.0663,0.0736,0.081,0.096,0.1075,0.1237,0.1358,0.1551,0.1628,0.17,0.1758,0.1713,0.1635,0.1528,0.1577,0.1408,0.1416,0.14,0.14,0.1413,0.1457,0.1315,0.1312,0.1309,0.1307,0,0.0543,0.0568,0.0667,0.0789,0.09,0.1033,0.1182,0.1259,0.1434,0.1532,0.1642,0.1688,0.1657,0.1565,0.1443,0.1374,0.1434,0.1352,0.1407,0.1342,0.1298,0.1318,0.1289,0.1285,0.1287,0.1289,0.129,0.1291,0.0611,0.0668,0.0763,0.0879,0.0983,0.1083,0.1157,0.1278,0.1398,0.1504,0.158,0.1589,0.1525,0.1356,0.1291,0.117,0.1245,0.1155,0.1196,0.1218,0.1269,0.1154,0.1075,0.1076,0.1077,0.1078,0.1078,0,0.071,0.0755,0.0858,0.0971,0.1045,0.1098,0.1221,0.1249,0.1311,0.1406,0.1452,0.1372,0.1274,0.1198,0.1042,0.1029,0.1069,0.1061,0.1105,0.1171,0.1116,0.1114,0.0958,0.0958,0.0958,0.0957,0.0957,0.0957,0.0783,0.0864,0.0884,0.0997,0.1054,0.1103,0.1136,0.1153,0.1195,0.1186,0.1154,0.1169,0.1148,0.1043,0.1001,0.1006,0.1128,0.1052,0.1189,0.1169,0.1183,0.1196,0.1204,0.1069,0.1069,0.1228,0.1229,0.123]}],[{"header":{"parameterUnit":"m.s-1","parameterCategory":2,"la1":30.2991,"la2":30.254,"lo1":-89.0895,"lo2":-89.0444,"dy":0.0017,"dx":0.0017,"nx":28,"ny":28,"refTime":"2025-06-20T03:00:00:Z","depth":"2","parameterNumber":2,"parameterNumberName":"U-component_of_CURRENTS"},"data":[0,0,0,0,0,0,0,0,0,0,0,0,0,0,0,0,0,0,0,0,0,0,0,0,0,0,0,0,0,0,0,0,0,0,0,0,0,0,0,0,0,0,0,0,0,0,0,0,0,0,0,0,0,0,0,0,0,0,0.1774,0.1773,0,0.1748,0.1748,0.1748,0.178,0.178,0.1781,0.1782,0.1992,0.1997,0.2002,0,0,0,0,0,0,0,0,0,0,0,0,0,0.1817,0.1816,0.1774,0.1773,0.1772,0.1748,0.1748,0.1748,0.178,0.178,0.1781,0.1782,0.199,0.1996,0.2002,0,0,0,0,0,0,0,0,0,0,0,0,0,0.18,0.1816,0.1774,0.1781,0.1781,0.1748,0.1748,0.1748,0.1779,0.178,0.1781,0.1782,0.1988,0.1996,0.2003,0.2028,0,0,0.2026,0.2029,0,0,0,0,0,0,0,0,0.1801,0.1799,0.1781,0.1781,0.178,0.1764,0.184,0.1852,0.1779,0.1785,0.1782,0.1783,0.1933,0.1945,0.1942,0.2038,0.2047,0.2026,0.2031,0.2034,0.2036,0,0,0,0,0,0,0,0.1802,0.18,0.1769,0.178,0.1779,0.1774,0.1774,0.1842,0.1862,0.1785,0.1786,0.1775,0.1936,0.1935,0.1948,0.205,0.2026,0.2033,0.2037,0.204,0.2412,0.2417,0,0,0,0,0,0,0.1796,0.1801,0.177,0.1768,0.1788,0.1772,0.1772,0.1772,0.1856,0.1867,0.1774,0.1776,0.1921,0.1939,0.1956,0.215,0.2034,0.2041,0.2045,0.2407,0.2413,0.2419,0,0,0,0,0,0,0.1797,0.1793,0.1771,0.1779,0.1775,0.177,0.177,0.1771,0.18,0.1844,0.1861,0.1805,0.1923,0.1945,0.2063,0.2153,0.2044,0.2051,0.24,0.2409,0.2416,0.2437,0,0,0,0,0,0,0.1798,0.1794,0.182,0.1779,0.1774,0.1784,0.1769,0.177,0.1787,0.1791,0.1876,0.1894,0.1925,0.2052,0.207,0.2161,0.2057,0.2394,0.2404,0.2414,0.243,0.2445,0.2458,0,0,0,0,0,0.18,0.1801,0.1822,0.1819,0.1801,0.1785,0.1784,0.1785,0.1788,0.1814,0.188,0.1893,0.2132,0.206,0.2081,0.2176,0.2389,0.2401,0.2413,0.2423,0.2442,0.2458,0,0,0,0,0,0,0.1858,0.1803,0.1825,0.1822,0.1828,0.1789,0.1799,0.1802,0.1866,0.1887,0.1933,0.1957,0.2108,0.2145,0.2065,0.2325,0.2276,0.2292,0.2277,0.2295,0.2309,0.2295,0.2063,0,0,0,0,0,0.1878,0.1857,0.1836,0.1848,0.1844,0.1835,0.1836,0.1842,0.187,0.1896,0.1959,0.2057,0.2169,0.2229,0.2325,0.2439,0.2426,0.2531,0.2546,0.2557,0.2569,0.2641,0.2659,0.2459,0.2459,0.2459,0,0,0.19,0.1874,0.1865,0.1858,0.1855,0.1873,0.184,0.1848,0.1893,0.1916,0.2022,0.2107,0.2215,0.2356,0.2429,0.2397,0.2597,0.2572,0.258,0.2586,0.2655,0.2673,0.269,0.2468,0.2466,0.2465,0,0,0.1924,0.1918,0.1914,0.192,0.1921,0.1913,0.1925,0.1926,0.1961,0.2061,0.2114,0.2237,0.2389,0.2476,0.2541,0.2696,0.2674,0.2762,0.2813,0.2882,0.2897,0.291,0.2843,0.285,0.2763,0.2763,0.2763,0,0.1956,0.1958,0.1922,0.1939,0.1938,0.1938,0.196,0.1998,0.2055,0.2092,0.2118,0.2362,0.2448,0.2613,0.2688,0.2725,0.2718,0.2719,0.2892,0.2905,0.2918,0.2847,0.2854,0.2766,0.2765,0.2765,0.2765,0,0.199,0.2004,0.1999,0.2015,0.2027,0.2033,0.2063,0.2115,0.2161,0.2201,0.2372,0.2491,0.2629,0.2706,0.2752,0.2917,0.2861,0.2892,0.282,0.2938,0.2856,0.2863,0.2769,0.2768,0.2768,0.2767,0,0,0.2008,0.2009,0.2019,0.203,0.2055,0.2054,0.2136,0.2186,0.2235,0.2361,0.2446,0.2673,0.2725,0.2809,0.2892,0.2976,0.3047,0.2988,0.2991,0.2869,0.311,0.2775,0.2749,0.3112,0.3116,0.3119,0.2983,0,0.2045,0.206,0.2064,0.2106,0.2105,0.2127,0.2192,0.2256,0.2325,0.2418,0.256,0.2695,0.2769,0.2852,0.2956,0.3046,0.3083,0.3074,0.3062,0.3058,0.2707,0.2755,0.2659,0.2509,0.299,0.2991,0.2992,0,0.2086,0.2077,0.2104,0.2109,0.2115,0.2164,0.2219,0.2282,0.2406,0.2467,0.2612,0.2707,0.2879,0.2925,0.3084,0.3078,0.3106,0.3146,0.3142,0.2833,0.2741,0.2494,0.2503,0.3003,0.3002,0.3001,0.3001,0,0.2084,0.2103,0.2109,0.2118,0.2146,0.2183,0.2216,0.2311,0.2362,0.2507,0.2561,0.2746,0.2841,0.2963,0.3014,0.3087,0.3104,0.3199,0.2894,0.2866,0.2781,0.2737,0.3288,0.3288,0.3288,0.3289,0.3289,0,0.2085,0.2095,0.2116,0.2124,0.2157,0.2184,0.2249,0.2307,0.2405,0.2463,0.2599,0.2661,0.2874,0.2895,0.2977,0.2877,0.3053,0.2882,0.2828,0.2773,0.2733,0.319,0.318,0.3284,0.3285,0.3286,0.3287,0,0.2082,0.2087,0.2108,0.2144,0.216,0.2197,0.2258,0.23,0.2382,0.2463,0.2513,0.2616,0.2613,0.267,0.2783,0.2752,0.2737,0.2645,0.2467,0.2393,0.2469,0.2464,0.2358,0.2346,0.2335,0.2327,0.2319,0,0.2061,0.2078,0.2135,0.2157,0.2182,0.2227,0.2255,0.2312,0.2344,0.2412,0.2439,0.2435,0.2385,0.2283,0.2267,0.2191,0.2377,0.1998,0.2141,0.2425,0.2385,0.2396,0.2405,0.2032,0.2023,0.2016,0.201,0,0.2056,0.2109,0.2139,0.2178,0.2213,0.2221,0.2258,0.2257,0.2305,0.2318,0.2259,0.2204,0.2066,0.1902,0.1718,0.1716,0.201,0.1829,0.2241,0.2228,0.2093,0.206,0.2086,0.1943,0.195,0.1955,0.1958,0.1961,0.209,0.212,0.2183,0.2201,0.2227,0.2202,0.2144,0.2141,0.2108,0.2019,0.2027,0.1836,0.1772,0.1425,0.1331,0.1288,0.1475,0.1493,0.1531,0.1573,0.1506,0.1354,0.1047,0.1048,0.1049,0.105,0.1051,0,0.2123,0.2167,0.2187,0.2177,0.2135,0.2186,0.2123,0.1995,0.1857,0.1783,0.1637,0.1353,0.1166,0.1114,0.0963,0.0891,0.107,0.085,0.1145,0.1207,0.1263,0.1196,0.0647,0.0646,0.0644,0.0643,0,0,0.2163,0.2188,0.2164,0.2076,0.2067,0.193,0.186,0.1674,0.1551,0.1312,0.1164,0.1093,0.1081,0.0853,0.0803,0.0709,0.0978,0.0681,0.1011,0.1425,0.1481,0.1629,0.1587,0,0,0,0,0]},{"header":{"parameterUnit":"m.s-1","parameterCategory":2,"la1":30.2991,"la2":30.254,"lo1":-89.0895,"lo2":-89.0444,"dy":0.0017,"dx":0.0017,"nx":28,"ny":28,"refTime":"2025-06-20T03:00:00:Z","depth":"2","parameterNumber":3,"parameterNumberName":"V-component_of_CURRENTS"},"data":[0,0,0,0,0,0,0,0,0,0,0,0,0,0,0,0,0,0,0,0,0,0,0,0,0,0,0,0,0,0,0,0,0,0,0,0,0,0,0,0,0,0,0,0,0,0,0,0,0,0,0,0,0,0,0,0,0,0,-0.0336,-0.0336,0,-0.0314,-0.0314,-0.0313,-0.0306,-0.0306,-0.0307,-0.0307,-0.0233,-0.0231,-0.0229,0,0,0,0,0,0,0,0,0,0,0,0,0,-0.0246,-0.0248,-0.0336,-0.0336,-0.0336,-0.0314,-0.0314,-0.0313,-0.0306,-0.0306,-0.0307,-0.0307,-0.0234,-0.0231,-0.0228,0,0,0,0,0,0,0,0,0,0,0,0,0,-0.0257,-0.0249,-0.0336,-0.0333,-0.0333,-0.0314,-0.0314,-0.0313,-0.0306,-0.0306,-0.0307,-0.0308,-0.0235,-0.0232,-0.0228,-0.0192,0,0,-0.0217,-0.0216,0,0,0,0,0,0,0,0,-0.0257,-0.026,-0.0333,-0.0333,-0.0333,-0.0317,-0.0255,-0.0271,-0.0305,-0.0312,-0.0307,-0.0308,-0.0258,-0.0253,-0.0243,-0.0189,-0.0186,-0.0217,-0.0215,-0.0213,-0.0212,0,0,0,0,0,0,0,-0.0256,-0.026,-0.0324,-0.0333,-0.0333,-0.029,-0.0293,-0.0257,-0.0278,-0.0311,-0.0312,-0.0315,-0.0258,-0.0246,-0.0241,-0.0185,-0.0217,-0.0214,-0.0212,-0.021,-0.0048,-0.0046,0,0,0,0,0,0,-0.0273,-0.0261,-0.0324,-0.0323,-0.03,-0.0292,-0.0295,-0.0318,-0.0279,-0.0275,-0.0315,-0.0315,-0.0252,-0.0245,-0.0238,-0.0158,-0.0213,-0.021,-0.0208,-0.005,-0.0048,-0.0046,0,0,0,0,0,0,-0.0272,-0.028,-0.0325,-0.0293,-0.0296,-0.0294,-0.0319,-0.0317,-0.0324,-0.0283,-0.0278,-0.0326,-0.0252,-0.0243,-0.0199,-0.0156,-0.0208,-0.0205,-0.0053,-0.005,-0.0047,-0.002,0,0,0,0,0,0,-0.0269,-0.028,-0.0298,-0.0295,-0.0299,-0.0318,-0.0319,-0.0317,-0.0326,-0.0327,-0.029,-0.0283,-0.0252,-0.0204,-0.0195,-0.0152,-0.0202,-0.0056,-0.0052,-0.0048,-0.0023,-0.0016,-0.0009,0,0,0,0,0,-0.0267,-0.029,-0.03,-0.0307,-0.0327,-0.0319,-0.0316,-0.0312,-0.0327,-0.0323,-0.029,-0.0286,-0.0172,-0.02,-0.019,-0.0145,-0.0058,-0.0053,-0.0048,-0.0026,-0.0017,-0.001,0,0,0,0,0,0,-0.026,-0.0292,-0.0302,-0.0335,-0.0331,-0.0319,-0.0318,-0.0324,-0.0298,-0.0301,-0.0267,-0.0256,-0.0199,-0.0177,-0.021,-0.0084,-0.011,-0.0103,-0.0097,-0.0088,-0.0081,-0.0043,-0.0199,0,0,0,0,0,-0.0269,-0.0297,-0.0308,-0.0332,-0.0334,-0.0331,-0.033,-0.0331,-0.0311,-0.0304,-0.0278,-0.0232,-0.0166,-0.0137,-0.0091,-0.003,-0.0017,0.001,0.0017,0.0023,0.0063,0.013,0.0147,-0.003,-0.003,-0.003,0,0,-0.0277,-0.0294,-0.0312,-0.0331,-0.0329,-0.0308,-0.0331,-0.0335,-0.0304,-0.0296,-0.0251,-0.0219,-0.0148,-0.0071,-0.0042,-0.005,0.0066,0.0029,0.0033,0.0072,0.0137,0.0154,0.0169,-0.0026,-0.0027,-0.0027,0,0,-0.0275,-0.0317,-0.0324,-0.0317,-0.032,-0.031,-0.0318,-0.0315,-0.0302,-0.0262,-0.0229,-0.0168,-0.0106,-0.0022,0.0027,0.01,0.0092,0.0104,0.0181,0.0244,0.0259,0.0273,0.0243,0.0254,0.0117,0.0117,0.0117,0,-0.0275,-0.0289,-0.032,-0.0303,-0.0287,-0.0311,-0.0284,-0.0266,-0.0246,-0.0207,-0.0246,-0.009,-0.0064,0.0098,0.0123,0.0119,0.0119,0.0138,0.0253,0.0267,0.0281,0.0247,0.0259,0.0119,0.0119,0.0119,0.0119,0,-0.0262,-0.0264,-0.0264,-0.025,-0.0234,-0.0223,-0.0202,-0.0183,-0.0185,-0.0152,-0.0043,0.0009,0.012,0.0129,0.0148,0.0285,0.0236,0.024,0.0226,0.03,0.0259,0.0271,0.0122,0.0121,0.0121,0.012,0,0,-0.0285,-0.0259,-0.0257,-0.0225,-0.0206,-0.0186,-0.013,-0.0065,-0.0,0.0021,0.0135,0.0229,0.0254,0.0316,0.0352,0.0405,0.0454,0.0366,0.0368,0.0326,0.0529,0.045,0.0453,0.0476,0.048,0.0483,0.0435,0,-0.0258,-0.0211,-0.0203,-0.0138,-0.0109,-0.0087,-0.0018,0.0039,0.0083,0.0181,0.0257,0.0364,0.0331,0.0392,0.0449,0.0479,0.05,0.0464,0.0476,0.0476,0.0391,0.0472,0.0452,0.0407,0.0446,0.0448,0.045,0,-0.0249,-0.0209,-0.015,-0.0061,-0.0044,-0.0005,0.011,0.0169,0.0298,0.0342,0.0463,0.0514,0.0644,0.0579,0.0667,0.0643,0.0595,0.058,0.0578,0.0521,0.0424,0.0357,0.0427,0.0469,0.0468,0.0466,0.0465,0,-0.0246,-0.0173,-0.0119,-0.0095,-0.0001,0.0046,0.01,0.0214,0.0303,0.0454,0.0543,0.0678,0.0767,0.0771,0.0735,0.071,0.078,0.0737,0.0609,0.0597,0.0598,0.0581,0.078,0.078,0.078,0.078,0.078,0,-0.0225,-0.0178,-0.0115,-0.0083,0.0012,0.0064,0.0186,0.0259,0.0412,0.0556,0.0632,0.0778,0.0824,0.0869,0.0795,0.0745,0.0824,0.065,0.0616,0.0595,0.0581,0.0666,0.0654,0.0778,0.0778,0.0779,0.0779,0,-0.0226,-0.0193,-0.0123,-0.0027,0.0007,0.007,0.022,0.0332,0.0448,0.0645,0.0707,0.0878,0.0918,0.0897,0.09,0.0824,0.0769,0.071,0.0634,0.0594,0.0509,0.0499,0.0578,0.0575,0.0573,0.0572,0.057,0,-0.0221,-0.0192,-0.0099,-0.0046,-0.0005,0.01,0.0197,0.0332,0.0466,0.071,0.0827,0.0929,0.1003,0.0951,0.084,0.0689,0.0701,0.0577,0.0545,0.0548,0.0506,0.0499,0.0491,0.0514,0.0512,0.0511,0.051,0,-0.0194,-0.0179,-0.0112,-0.0013,0.0075,0.0204,0.0346,0.0458,0.0652,0.0794,0.0987,0.1046,0.1,0.0894,0.0703,0.0606,0.0605,0.0538,0.0637,0.0564,0.0485,0.0443,0.044,0.0497,0.0498,0.0499,0.05,0.0501,-0.0175,-0.013,-0.0053,0.0055,0.0159,0.0321,0.0424,0.0577,0.0763,0.0953,0.1023,0.1051,0.0978,0.069,0.0587,0.0466,0.0458,0.0412,0.0419,0.0427,0.0424,0.0347,0.0326,0.0327,0.0327,0.0327,0.0327,0,-0.0114,-0.0056,0.0027,0.0175,0.0312,0.0357,0.0549,0.063,0.0802,0.0913,0.0984,0.0859,0.0754,0.0647,0.0441,0.0336,0.0356,0.0314,0.0372,0.0383,0.0393,0.0392,0.0284,0.0284,0.0284,0.0284,0,0,-0.0073,0.0024,0.0074,0.0301,0.0407,0.0554,0.0652,0.0711,0.0767,0.0822,0.0816,0.0813,0.0727,0.0578,0.0464,0.0372,0.04,0.0349,0.0384,0.0474,0.0486,0.0437,0.0445,0,0,0,0,0]}],[{"header":{"parameterUnit":"m.s-1","parameterCategory":2,"la1":30.2991,"la2":30.254,"lo1":-89.0895,"lo2":-89.0444,"dy":0.0017,"dx":0.0017,"nx":28,"ny":28,"refTime":"2025-06-20T03:00:00:Z","depth":"4","parameterNumber":2,"parameterNumberName":"U-component_of_CURRENTS"},"data":[0,0,0,0,0,0,0,0,0,0,0,0,0,0,0,0,0,0,0,0,0,0,0,0,0,0,0,0,0,0,0,0,0,0,0,0,0,0,0,0,0,0,0,0,0,0,0,0,0,0,0,0,0,0,0,0,0,0,-0.0091,-0.0091,0,-0.0157,-0.0158,-0.0159,-0.0188,-0.0188,-0.0187,-0.0187,-0.0236,-0.0238,-0.024,0,0,0,0,0,0,0,0,0,0,0,0,0,0.0165,0.0159,-0.0091,-0.0091,-0.0092,-0.0157,-0.0158,-0.0159,-0.0188,-0.0188,-0.0187,-0.0187,-0.0236,-0.0238,-0.024,0,0,0,0,0,0,0,0,0,0,0,0,0,0.0067,0.0157,-0.0091,-0.0111,-0.0113,-0.0156,-0.0158,-0.016,-0.0189,-0.0188,-0.0187,-0.0186,-0.0235,-0.0238,-0.024,-0.0271,0,0,-0.0248,-0.025,0,0,0,0,0,0,0,0,0.0073,0.0057,-0.0107,-0.011,-0.0112,-0.016,-0.0086,-0.0195,-0.0189,-0.0164,-0.0187,-0.0186,-0.0207,-0.0212,-0.0232,-0.0274,-0.0276,-0.0249,-0.025,-0.0251,-0.0252,0,0,0,0,0,0,0,0.0079,0.0061,-0.0121,-0.0108,-0.0111,-0.0063,-0.0078,-0.0106,-0.0192,-0.0166,-0.0168,-0.0168,-0.0209,-0.023,-0.0234,-0.0276,-0.0249,-0.0251,-0.0253,-0.0254,-0.0158,-0.0154,0,0,0,0,0,0,0.0086,0.0066,-0.0119,-0.0123,-0.0011,-0.0069,-0.0085,-0.0149,-0.0192,-0.0197,-0.0169,-0.0169,-0.0226,-0.023,-0.0235,-0.0102,-0.0251,-0.0254,-0.0255,-0.0162,-0.0157,-0.0153,0,0,0,0,0,0,0.009,0.0067,-0.0116,-0.0021,-0.0041,-0.0075,-0.0145,-0.015,-0.0166,-0.0193,-0.0199,-0.0177,-0.0225,-0.0232,-0.0226,-0.0111,-0.0255,-0.0257,-0.0167,-0.0161,-0.0155,0.0054,0,0,0,0,0,0,0.0097,0.0067,0.0021,-0.0024,-0.0046,-0.0145,-0.0145,-0.0152,-0.0165,-0.0167,-0.0202,-0.0206,-0.0225,-0.0222,-0.0229,-0.0117,-0.026,-0.0172,-0.0164,-0.0157,0.0042,0.0066,0.0087,0,0,0,0,0,0.0105,0.003,0.0017,-0.0004,-0.0112,-0.0145,-0.0153,-0.0173,-0.0166,-0.0182,-0.0175,-0.0205,-0.0175,-0.0223,-0.0232,-0.0117,-0.0176,-0.0167,-0.0158,0.0031,0.0061,0.0087,0,0,0,0,0,0,0.0131,0.002,0.0004,-0.0098,-0.0113,-0.0148,-0.0167,-0.017,-0.0182,-0.017,-0.0192,-0.0196,-0.0132,-0.0171,-0.0222,-0.0063,-0.0165,-0.0157,-0.0018,0.001,0.0032,0.0031,-0.0262,0,0,0,0,0,0.0112,0.0013,-0.0034,-0.0107,-0.0118,-0.0136,-0.0151,-0.0155,-0.0166,-0.0172,-0.0168,-0.0148,-0.0104,-0.0089,-0.0082,-0.0031,-0.0148,0.005,0.0073,0.0093,0.0089,-0.002,-0.0009,-0.0122,-0.0122,-0.0123,0,0,0.0099,0.0034,-0.0024,-0.0108,-0.0124,-0.012,-0.0146,-0.0162,-0.0113,-0.0174,-0.0106,-0.0089,-0.0078,0.0011,0.004,-0.0005,0.0069,0.0104,0.0121,0.0106,-0.001,0.0,0.0009,-0.0116,-0.0117,-0.0118,0,0,0.0059,-0.0022,-0.0098,-0.0105,-0.0126,-0.0118,-0.0116,-0.0122,-0.0084,-0.002,-0.0014,0.0044,0.0101,0.0138,0.0168,0.0303,0.0185,0.0353,0.0477,0.0374,0.0381,0.0385,0.026,0.0252,0.0376,0.0377,0.0377,0,0.0074,-0.0038,-0.0108,-0.0132,-0.0108,-0.0107,-0.0091,-0.0055,-0.0036,0.0025,0.0033,0.0159,0.0167,0.0281,0.0379,0.0356,0.0266,0.0375,0.0399,0.0401,0.0401,0.0272,0.0259,0.0388,0.0387,0.0385,0.0384,0,-0.0014,-0.0056,-0.008,-0.0111,-0.0091,-0.0084,-0.002,0.004,0.0122,0.0177,0.0312,0.0333,0.041,0.0468,0.0488,0.0557,0.0481,0.0426,0.0318,0.0424,0.0282,0.0266,0.0404,0.04,0.0396,0.0394,0,0,-0.0055,-0.0132,-0.0126,-0.0099,-0.0067,-0.0046,0.0069,0.0173,0.0259,0.0356,0.0457,0.0616,0.0636,0.0668,0.0691,0.0654,0.0619,0.0589,0.0578,0.0446,0.0377,0.0496,0.0487,0.0571,0.0569,0.0568,0.0276,0,-0.0066,-0.0113,-0.0128,-0.0061,-0.0047,0.0038,0.0149,0.0261,0.0369,0.0464,0.0557,0.0649,0.0713,0.0765,0.0755,0.065,0.0585,0.0701,0.0309,0.0297,0.0374,0.0477,0.0563,0.0263,0.0259,0.0256,0.0254,0,-0.0128,-0.013,-0.0109,-0.0008,0.0013,0.0088,0.0277,0.0366,0.0511,0.0591,0.0703,0.0741,0.0805,0.0782,0.0659,0.0737,0.059,0.0477,0.0461,0.0483,0.0388,0.0133,0.0221,0.0223,0.0226,0.0228,0.023,0,-0.0126,-0.0094,-0.0064,-0.0037,0.0066,0.017,0.0267,0.0428,0.0506,0.065,0.0687,0.077,0.076,0.0658,0.0547,0.0587,0.0303,0.0288,0.0227,0.0229,0.0102,0.01,0.0109,0.011,0.011,0.0111,0.0112,0,-0.0142,-0.0105,-0.0045,-0.0021,0.0112,0.0198,0.0345,0.0458,0.0558,0.0624,0.0745,0.0757,0.0723,0.0605,0.05,0.035,0.0253,0.0262,0.0184,0.0201,0.0214,0.0088,0.009,0.01,0.0103,0.0105,0.0107,0,-0.0161,-0.016,-0.0092,0.004,0.0098,0.0211,0.036,0.0437,0.0548,0.0608,0.0648,0.0691,0.0625,0.0537,0.03,0.0265,0.0098,0.0019,0.0031,-0.0048,0.0093,0.0109,-0.0032,-0.003,-0.0028,-0.0026,-0.0025,0,-0.02,-0.0177,-0.0051,0.0004,0.0076,0.0226,0.0311,0.044,0.0488,0.0563,0.0559,0.0542,0.0577,0.0332,0.0259,0.0074,0.0048,-0.0075,0.009,0.0152,0.0087,0.01,0.0113,-0.0022,-0.0021,-0.0021,-0.002,0,-0.0205,-0.0159,-0.0097,-0.0005,0.0097,0.0198,0.0319,0.0337,0.0456,0.0507,0.0518,0.052,0.0425,0.036,0.0216,0.0074,0.0035,-0.0054,-0.0058,0.0096,0.0162,0.0099,0.0109,-0.0014,-0.0015,-0.0015,-0.0016,0,-0.0184,-0.0143,-0.0081,0.0031,0.0113,0.0188,0.0246,0.0315,0.0375,0.0461,0.0427,0.0429,0.0413,0.0346,0.02,0.0143,0.0158,0.0116,0.0104,0.0096,0.0294,0.0406,0.025,0,0,0,0,0,-0.0143,-0.0106,-0.0051,0.0059,0.0119,0.0188,0.0258,0.0297,0.0366,0.0379,0.0429,0.0386,0.0347,0.0308,0.0274,0.0236,0.0122,0.0192,0.006,0.0024,0.0016,0.0249,0,0,0,0,0,0,-0.0124,-0.0082,-0.0051,0.006,0.0137,0.0214,0.0268,0.0301,0.0319,0.0374,0.0343,0.0389,0.0324,0.0382,0.0282,0.0268,0.018,0.0182,0.0182,0.0028,0.0021,0.0015,0.0252,0,0,0,0,0]},{"header":{"parameterUnit":"m.s-1","parameterCategory":2,"la1":30.2991,"la2":30.254,"lo1":-89.0895,"lo2":-89.0444,"dy":0.0017,"dx":0.0017,"nx":28,"ny":28,"refTime":"2025-06-20T03:00:00:Z","depth":"4","parameterNumber":3,"parameterNumberName":"V-component_of_CURRENTS"},"data":[0,0,0,0,0,0,0,0,0,0,0,0,0,0,0,0,0,0,0,0,0,0,0,0,0,0,0,0,0,0,0,0,0,0,0,0,0,0,0,0,0,0,0,0,0,0,0,0,0,0,0,0,0,0,0,0,0,0,0.0287,0.0287,0,0.0355,0.0356,0.0357,0.0398,0.0398,0.0398,0.0398,0.0524,0.0527,0.053,0,0,0,0,0,0,0,0,0,0,0,0,0,0.0124,0.0127,0.0287,0.0287,0.0288,0.0355,0.0356,0.0357,0.0398,0.0398,0.0398,0.0398,0.0523,0.0527,0.0531,0,0,0,0,0,0,0,0,0,0,0,0,0,0.0195,0.0128,0.0287,0.0315,0.0318,0.0355,0.0356,0.0358,0.0398,0.0398,0.0398,0.0398,0.0521,0.0526,0.0531,0.0562,0,0,0.0547,0.0549,0,0,0,0,0,0,0,0,0.0191,0.0202,0.031,0.0313,0.0317,0.0366,0.0344,0.0428,0.0398,0.037,0.0398,0.0398,0.0475,0.0484,0.0499,0.0568,0.0573,0.0547,0.055,0.0552,0.0554,0,0,0,0,0,0,0,0.0187,0.0199,0.0316,0.0311,0.0315,0.0301,0.0312,0.036,0.0424,0.0372,0.0375,0.0379,0.0478,0.0494,0.0502,0.0575,0.0547,0.0551,0.0554,0.0556,0.0567,0.0564,0,0,0,0,0,0,0.0178,0.0195,0.0314,0.0318,0.025,0.0304,0.0316,0.0352,0.0423,0.0432,0.0379,0.0381,0.0485,0.0496,0.0507,0.0528,0.0552,0.0557,0.056,0.057,0.0566,0.0563,0,0,0,0,0,0,0.0175,0.019,0.0311,0.0253,0.0268,0.0307,0.0346,0.0353,0.0383,0.0427,0.0438,0.0402,0.0486,0.05,0.0561,0.0534,0.0559,0.0564,0.0573,0.0569,0.0565,0.0583,0,0,0,0,0,0,0.0171,0.0189,0.0212,0.0255,0.0271,0.0337,0.0346,0.0355,0.0383,0.0387,0.045,0.0461,0.0487,0.0553,0.0566,0.0541,0.0568,0.0576,0.0571,0.0566,0.0586,0.0581,0.0576,0,0,0,0,0,0.0165,0.0202,0.0213,0.0227,0.0303,0.0337,0.0344,0.0371,0.0384,0.0398,0.0444,0.046,0.0526,0.0559,0.0573,0.0549,0.0579,0.0572,0.0566,0.0589,0.0582,0.0576,0,0,0,0,0,0,0.0137,0.0211,0.0224,0.028,0.0304,0.0343,0.0362,0.0379,0.0426,0.0441,0.0478,0.0492,0.0514,0.0526,0.0559,0.0521,0.0533,0.053,0.0544,0.0538,0.0533,0.0545,0.0572,0,0,0,0,0,0.0142,0.0196,0.024,0.028,0.0297,0.0331,0.0349,0.0372,0.0414,0.0435,0.048,0.0498,0.0495,0.052,0.0529,0.0557,0.0529,0.0525,0.0519,0.0516,0.0526,0.0409,0.0395,0.0543,0.0543,0.0543,0,0,0.0137,0.0186,0.0212,0.0277,0.0303,0.033,0.0344,0.0383,0.0401,0.0444,0.0497,0.0501,0.0495,0.0504,0.051,0.0522,0.0467,0.0508,0.0506,0.0518,0.0401,0.0387,0.0375,0.0539,0.054,0.054,0,0,0.0155,0.0203,0.0251,0.0277,0.0324,0.034,0.0353,0.0405,0.0425,0.0478,0.0473,0.046,0.0518,0.0477,0.0466,0.0433,0.0437,0.0427,0.0434,0.032,0.0308,0.0297,0.0294,0.0282,0.0431,0.0431,0.0431,0,0.0139,0.0219,0.026,0.0304,0.0322,0.0345,0.0376,0.0396,0.0459,0.0466,0.0495,0.0478,0.0484,0.0429,0.0424,0.0421,0.0409,0.0475,0.0317,0.0305,0.0293,0.0292,0.0278,0.0431,0.0431,0.0431,0.0431,0,0.0191,0.0248,0.0274,0.0338,0.0354,0.039,0.0412,0.0437,0.0465,0.0474,0.0457,0.045,0.0441,0.0404,0.0434,0.0335,0.0375,0.0323,0.0347,0.028,0.0283,0.0269,0.0431,0.0431,0.0431,0.0431,0,0,0.0175,0.0291,0.03,0.0332,0.0381,0.0398,0.0419,0.0433,0.0433,0.0459,0.0432,0.0411,0.0414,0.0397,0.0378,0.0288,0.0217,0.0305,0.0299,0.033,0.0061,0.0085,0.0073,0.0151,0.0147,0.0144,0.0117,0,0.02,0.0295,0.0336,0.0384,0.0427,0.044,0.0453,0.0459,0.046,0.0441,0.0385,0.0375,0.0405,0.0409,0.0321,0.0217,0.0174,0.0235,0.0098,0.0096,0.0144,0.0052,0.0133,0.0107,0.0103,0.0101,0.0099,0,0.0242,0.0299,0.038,0.0428,0.0443,0.0474,0.0475,0.0493,0.0454,0.0454,0.0418,0.0393,0.0306,0.0317,0.0152,0.0205,0.0171,0.0089,0.0084,0.0089,0.0089,0.0168,0.0074,0.0076,0.0078,0.0079,0.0081,0,0.0237,0.0319,0.039,0.0412,0.0472,0.0504,0.0529,0.0516,0.0504,0.0478,0.0443,0.0357,0.0292,0.02,0.0115,0.0139,-0.0092,-0.0104,-0.0102,-0.0096,-0.0108,-0.0097,-0.0211,-0.0211,-0.0211,-0.0211,-0.0211,0,0.0263,0.0312,0.041,0.0453,0.0495,0.0539,0.0564,0.0571,0.0537,0.0487,0.0479,0.0385,0.0252,0.0126,0.0081,-0.0047,-0.0107,-0.0105,-0.0134,-0.0092,-0.008,-0.0114,-0.0102,-0.0212,-0.0212,-0.0212,-0.0212,0,0.0263,0.0345,0.0411,0.049,0.0518,0.0556,0.0597,0.0583,0.059,0.0507,0.0506,0.0367,0.0223,0.0116,-0.0082,-0.0106,-0.0225,-0.0233,-0.0115,-0.0136,-0.0119,-0.0107,-0.0242,-0.0242,-0.0242,-0.0242,-0.0242,0,0.0279,0.0333,0.0424,0.0454,0.0509,0.0573,0.0594,0.062,0.0579,0.048,0.04,0.0272,0.0189,-0.0044,-0.0161,-0.0239,-0.0241,-0.0248,-0.0228,-0.0123,-0.0138,-0.0125,-0.0113,-0.0242,-0.0242,-0.0242,-0.0242,0,0.027,0.0322,0.036,0.0426,0.0477,0.0508,0.0541,0.0516,0.0506,0.0477,0.034,0.0258,0.0071,-0.0071,-0.0123,-0.019,-0.0238,-0.0249,-0.0248,-0.023,-0.0126,-0.0137,-0.0125,-0.0243,-0.0242,-0.0242,-0.0242,0,0.0241,0.0246,0.0307,0.0363,0.0421,0.0449,0.0474,0.0445,0.0431,0.0352,0.0281,0.0159,0.0061,-0.005,-0.0128,-0.017,-0.0171,-0.0151,-0.0156,-0.0156,-0.013,0.0016,-0.0097,0,0,0,0,0,0.0207,0.0207,0.0231,0.0298,0.0359,0.0404,0.0418,0.0428,0.0412,0.0333,0.0333,0.0201,0.0079,-0.0021,-0.0056,-0.0147,-0.0197,-0.019,-0.0179,-0.0244,-0.0244,-0.0227,0,0,0,0,0,0,0.0169,0.0186,0.02,0.0251,0.0297,0.0346,0.0376,0.036,0.0326,0.0305,0.0232,0.0217,0.0078,0.0114,-0.005,-0.0075,-0.0065,-0.0253,-0.0253,-0.0244,-0.0244,-0.0244,-0.0227,0,0,0,0,0]}]]